Regional Weather Roundup
Issued by NWS Goodland, KS

Home | Current Version | Previous Version | Graphics & Text | Print | Product List | Glossary On
Versions: 1 2 3 4 5 6 7 8 9 10 11 12 13 14 15 16 17 18 19 20 21 22 23 24 25 26 27 28 29 30 31 32 33 34 35 36 37 38 39 40 41 42 43 44 45 46 47 48 49 50
000
ASUS43 KGLD 172159
RWRGLD

GOODLAND FORECAST AREA HOURLY WEATHER ROUNDUP
NATIONAL WEATHER SERVICE GOODLAND KS
300 PM MST TUE JAN 17 2017

...OFFICIAL OBSERVATIONS...

CITY           SKY/WX    TMP DP  RH WIND       PRES   REMARKS
GOODLAND KS    SUNNY     45  33  63 SW8       30.04R
HILL CITY KS   SUNNY     50  30  46 VRB6      30.08R
IMPERIAL NEB   SUNNY     44  26  49 SW8       30.03R
MCCOOK NEB     SUNNY     46  27  47 SW10      30.05R
AKRON CO       SUNNY     39  29  67 SW9       30.00R
BURLINGTON CO  SUNNY     42  31  64 SW10      30.04R
LIMON CO       NOT AVBL
$$

...UNOFFICIAL OBSERVATIONS...

CITY           SKY/WX    TMP DP  RH WIND       PRES   REMARKS
LENORA KS        N/A     47  32  56 CALM        N/A
NORTON KS      SUNNY     48  27  43 W7        30.05
SHARON SPRINGS   N/A     48  34  58 SW8G16      N/A
TRENTON NEB      N/A     45  32  60 CALM        N/A
KIT CARSON CO    N/A     40  33  76 MISG        N/A
YUMA CO        FAIR      37  30  75 SW6       30.01S
$$



USA.gov is the U.S. government's official web portal to all federal, state and local government web resources and services.